GAOFEN-8

Last updated on Mon Sep 07 2026 00:02:45 GMT+0000 (Coordinated Universal Time)

1 40701U 15030A 26249.63489412 .00016395 00000+0 30773-3 0 9997 2 40701 97.6867 88.0619 0006618 258.0014 102.0494 15.48686842624048
UTC large
Height (km)
Speed (km/s)
/
Latitude / Longitude
Inclination (degrees)
Orbital Period (minutes)
Azimuth
Elevation
Range (km)
Doppler Factor

Next 0 passes for location: London (51.5072 / 0.1276)

No passes found over London.
GAOFEN-8